CW9558 Weather Reports


Display with metric or nautical units.
time (UTC)temp
F
wind
direction
speed
MPH
gust
MPH
rain 1hr
in
rain 24hr
in
rain mn
in
humidity
%
barometer
mb
20260906072841 68 85 2.0 4.0 0.00 0.15 0.00 89 1015.4
20260906072407 68 121 0.0 4.0 0.00 0.15 0.00 89 1015.3
20260906071841 68 126 1.0 6.0 0.00 0.15 0.00 89 1015.2
20260906071334 68 155 0.0 6.0 0.00 0.15 0.00 89 1015.2
20260906070841 68 134 2.0 4.0 0.00 0.15 0.00 89 1015.3
20260906070335 68 135 1.0 4.0 0.00 0.15 0.00 89 1015.3
20260906065834 68 132 0.0 4.0 0.00 0.15 0.00 89 1015.4
20260906065347 68 132 0.0 4.0 0.00 0.15 0.00 89 1015.4
20260906064836 68 137 1.0 5.0 0.00 0.15 0.00 89 1015.5
20260906064328 68 134 2.0 5.0 0.00 0.15 0.00 89 1015.4
20260906063833 68 132 0.0 0.0 0.00 0.15 0.00 90 1015.5
20260906063348 68 132 0.0 0.0 0.00 0.15 0.00 90 1015.5
20260906062828 68 132 0.0 3.0 0.00 0.15 0.00 90 1015.4
20260906062413 69 131 0.0 5.0 0.00 0.15 0.00 90 1015.4
20260906061833 69 145 0.0 3.0 0.00 0.15 0.00 90 1015.4
20260906061336 69 146 0.0 3.0 0.00 0.15 0.00 90 1015.4
20260906060843 69 146 1.0 3.0 0.00 0.15 0.00 90 1015.3
20260906060332 69 113 0.0 2.0 0.00 0.15 0.00 89 1015.3
20260906055851 69 111 0.0 2.0 0.00 0.15 0.00 89 1015.3
20260906055336 69 142 0.0 3.0 0.00 0.15 0.00 89 1015.1
20260906054844 69 165 0.0 4.0 0.00 0.15 0.00 90 1015.2
20260906054411 69 128 0.0 0.0 0.00 0.15 0.00 89 1015.1
20260906053902 69 128 0.0 3.0 0.00 0.15 0.00 90 1015.1
20260906053329 69 128 0.0 3.0 0.00 0.15 0.00 90 1015.1
20260906052838 69 128 1.0 3.0 0.00 0.15 0.00 90 1015.0
20260906052331 69 131 0.0 2.0 0.00 0.15 0.00 89 1015.0
20260906051840 69 131 0.0 3.0 0.00 0.15 0.00 89 1015.0
20260906051352 69 130 0.0 3.0 0.00 0.15 0.00 89 1015.0
20260906050839 69 130 0.0 4.0 0.00 0.15 0.00 89 1015.0
20260906050334 69 137 0.0 0.0 0.00 0.15 0.00 89 1014.9
20260906045902 69 131 0.0 3.0 0.00 0.15 0.00 89 1014.8
20260906045335 69 130 1.0 4.0 0.00 0.15 0.00 89 1014.9
20260906044842 69 131 1.0 4.0 0.00 0.15 0.00 89 1014.9
20260906044334 69 131 0.0 2.0 0.00 0.15 0.00 89 1014.7
20260906043842 69 132 0.0 4.0 0.00 0.15 0.00 89 1014.6
20260906043335 69 132 1.0 4.0 0.00 0.15 0.00 89 1014.7
20260906042841 69 130 0.0 2.0 0.00 0.15 0.00 89 1014.8
20260906042334 69 128 0.0 0.0 0.00 0.15 0.00 89 1014.7
20260906041841 69 126 0.0 0.0 0.00 0.15 0.00 89 1014.7
20260906041330 69 126 0.0 0.0 0.00 0.15 0.00 89 1014.8
20260906040837 69 126 0.0 0.0 0.00 0.15 0.00 89 1014.8
20260906040351 70 126 0.0 0.0 0.00 0.15 0.00 89 1014.7
20260906035833 70 126 0.0 0.0 0.00 0.15 0.15 89 1014.8
20260906035346 70 126 0.0 0.0 0.00 0.15 0.15 89 1014.8
20260906034855 70 128 0.0 0.0 0.00 0.15 0.15 89 1014.9
20260906034327 70 128 0.0 0.0 0.00 0.15 0.15 89 1014.8
20260906033851 70 129 0.0 2.0 0.00 0.15 0.15 89 1014.8
20260906033356 70 129 0.0 3.0 0.00 0.15 0.15 89 1014.8
20260906032843 70 129 1.0 5.0 0.00 0.15 0.15 89 1014.8
20260906032410 70 127 1.0 5.0 0.00 0.15 0.15 89 1014.7
20260906031857 71 127 1.0 6.0 0.00 0.15 0.15 89 1014.7
20260906031349 71 114 3.0 6.0 0.00 0.15 0.15 89 1014.7
20260906030853 71 142 2.0 5.0 0.00 0.15 0.15 89 1014.7
20260906030337 71 140 3.0 5.0 0.00 0.15 0.15 89 1014.6
20260906025836 71 141 2.0 5.0 0.00 0.15 0.15 89 1014.5
20260906025329 71 132 2.0 4.0 0.00 0.15 0.15 89 1014.5
20260906024836 71 143 1.0 8.0 0.00 0.15 0.15 89 1014.6
20260906024328 71 116 3.0 9.0 0.00 0.15 0.15 89 1014.5
20260906023837 71 155 3.0 9.0 0.00 0.15 0.15 89 1014.4
20260906023330 72 160 2.0 8.0 0.00 0.15 0.15 89 1014.3
20260906022834 72 134 2.0 8.0 0.00 0.15 0.15 89 1014.3
20260906022347 72 183 4.0 8.0 0.00 0.15 0.15 89 1014.3
20260906021854 72 159 3.0 5.0 0.00 0.15 0.15 89 1014.2
20260906021346 72 110 1.0 6.0 0.00 0.15 0.15 89 1014.2
20260906020833 72 146 2.0 5.0 0.00 0.15 0.15 89 1014.2
20260906020346 72 130 2.0 7.0 0.00 0.15 0.15 89 1014.2
20260906015833 72 141 2.0 8.0 0.00 0.15 0.15 89 1014.0
20260906015325 72 96 4.0 8.0 0.00 0.15 0.15 89 1013.9
20260906014833 73 122 2.0 7.0 0.00 0.15 0.15 89 1013.9
20260906014325 73 96 3.0 7.0 0.00 0.15 0.15 89 1013.9
20260906013834 73 139 2.0 10.0 0.00 0.15 0.15 89 1013.8
20260906013327 73 128 3.0 10.0 0.00 0.15 0.15 89 1013.5
20260906012835 73 159 2.0 6.0 0.00 0.15 0.15 89 1013.6
20260906012327 74 81 1.0 10.0 0.00 0.15 0.15 89 1013.7
20260906011831 74 132 4.0 10.0 0.00 0.15 0.15 89 1013.6
20260906011324 74 117 2.0 7.0 0.00 0.15 0.15 89 1013.4
20260906010833 74 155 2.0 7.0 0.00 0.15 0.15 89 1013.3
20260906010326 75 141 1.0 4.0 0.00 0.15 0.15 89 1013.4
20260906005831 75 138 1.0 5.0 0.00 0.15 0.15 89 1013.3
20260906005325 75 143 2.0 5.0 0.00 0.15 0.15 89 1013.1
20260906004838 75 141 1.0 5.0 0.00 0.15 0.15 90 1013.1
20260906004329 75 141 0.0 9.0 0.00 0.15 0.15 90 1013.0
20260906003835 75 146 2.0 9.0 0.00 0.15 0.15 90 1012.9
20260906003349 75 121 2.0 9.0 0.00 0.15 0.15 90 1012.9
20260906002836 75 111 2.0 10.0 0.10 0.15 0.15 90 1012.9
20260906002351 76 98 3.0 10.0 0.15 0.15 0.15 90 1012.8
20260906001830 76 84 3.0 7.0 0.15 0.15 0.15 90 1012.7
20260906001344 76 39 2.0 8.0 0.15 0.15 0.15 90 1012.6
20260906000825 76 171 2.0 8.0 0.15 0.15 0.15 90 1012.6
20260906000334 77 127 4.0 9.0 0.15 0.15 0.15 90 1012.6
20260905235833 77 103 2.0 8.0 0.15 0.15 0.15 90 1012.6
20260905235326 77 162 2.0 7.0 0.15 0.15 0.15 90 1012.5
20260905234833 77 148 2.0 5.0 0.15 0.15 0.15 90 1012.5
20260905234325 78 144 2.0 5.0 0.15 0.15 0.15 90 1012.6
20260905233833 78 150 2.0 7.0 0.15 0.15 0.15 89 1012.7
20260905233346 79 100 3.0 6.0 0.15 0.15 0.15 87 1012.7
20260905232826 81 5 2.0 11.0 0.04 0.04 0.04 87 1012.8
20260905232335 82 62 3.0 11.0 0.00 0.00 0.00 87 1012.4
20260905231857 82 120 2.0 6.0 0.00 0.00 0.00 87 1012.2
20260905231328 82 146 2.0 4.0 0.00 0.00 0.00 87 1011.7
20260905230836 82 142 1.0 2.0 0.00 0.00 0.00 87 1011.7
20260905230331 83 142 1.0 2.0 0.00 0.00 0.00 86 1011.7
20260905225849 83 142 0.0 4.0 0.00 0.00 0.00 85 1011.7
20260905225413 83 142 2.0 5.0 0.00 0.00 0.00 84 1011.7
20260905224853 83 142 3.0 5.0 0.00 0.00 0.00 83 1011.8
20260905224335 83 140 2.0 4.0 0.00 0.00 0.00 85 1011.8
20260905223840 83 137 1.0 4.0 0.00 0.00 0.00 87 1011.8
20260905223351 83 137 1.0 4.0 0.00 0.00 0.00 87 1011.8
20260905222901 83 136 0.0 3.0 0.00 0.00 0.00 85 1011.8
20260905222330 83 136 2.0 5.0 0.00 0.00 0.00 84 1011.8
20260905221837 84 137 3.0 6.0 0.00 0.00 0.00 83 1011.7
20260905221330 84 137 2.0 6.0 0.00 0.00 0.00 82 1011.6
20260905220834 85 153 3.0 5.0 0.00 0.00 0.00 82 1011.6
20260905220346 85 129 2.0 5.0 0.00 0.00 0.00 80 1011.5
20260905215843 85 169 2.0 7.0 0.00 0.00 0.00 80 1011.4
20260905215335 85 92 2.0 7.0 0.00 0.00 0.00 80 1011.3
20260905214842 85 109 2.0 4.0 0.00 0.00 0.00 80 1011.5
20260905214331 86 106 2.0 4.0 0.00 0.00 0.00 79 1011.5
20260905213835 85 119 1.0 7.0 0.00 0.00 0.00 82 1011.4
20260905213328 85 120 2.0 7.0 0.00 0.00 0.00 78 1011.4
20260905212837 86 84 4.0 6.0 0.00 0.00 0.00 79 1011.3
20260905212330 86 140 2.0 7.0 0.00 0.00 0.00 79 1011.3
20260905211839 86 129 1.0 6.0 0.00 0.00 0.00 79 1011.3
20260905211353 86 5 2.0 6.0 0.00 0.00 0.00 78 1011.3
20260905210840 86 67 1.0 9.0 0.00 0.00 0.00 80 1011.3
20260905210333 86 323 2.0 6.0 0.00 0.00 0.00 80 1011.2
20260905205901 86 63 2.0 6.0 0.00 0.00 0.00 80 1011.4
20260905205334 85 51 1.0 5.0 0.00 0.00 0.00 82 1011.5
20260905204851 85 54 2.0 5.0 0.00 0.00 0.00 79 1011.5
20260905204336 86 68 2.0 12.0 0.00 0.00 0.00 78 1011.4
20260905203852 86 144 4.0 12.0 0.00 0.00 0.00 79 1011.5
20260905203324 86 185 3.0 9.0 0.00 0.00 0.00 81 1011.5
20260905202833 86 302 4.0 9.0 0.00 0.00 0.00 78 1011.4
20260905202345 86 13 4.0 8.0 0.00 0.00 0.00 78 1011.6
20260905201901 86 22 1.0 5.0 0.00 0.00 0.00 80 1011.8
20260905201333 85 26 1.0 5.0 0.00 0.00 0.00 79 1012.0
20260905200840 86 5 2.0 4.0 0.00 0.00 0.00 77 1012.0
20260905200334 86 9 2.0 4.0 0.00 0.00 0.00 78 1012.0
20260905195833 86 5 2.0 4.0 0.00 0.00 0.00 78 1012.0
20260905195345 86 355 2.0 6.0 0.00 0.00 0.00 77 1012.0
20260905194826 86 351 3.0 6.0 0.00 0.00 0.00 77 1012.1
20260905194400 86 338 3.0 5.0 0.00 0.00 0.00 77 1012.0
20260905193846 87 33 2.0 6.0 0.00 0.00 0.00 76 1012.0
20260905193335 86 5 3.0 6.0 0.00 0.00 0.00 77 1012.0
20260905192838 85 15 2.0 6.0 0.00 0.00 0.00 80 1012.1
20260905192350 85 355 3.0 6.0 0.00 0.00 0.00 80 1012.2
20260905191834 85 10 2.0 5.0 0.00 0.00 0.00 79 1012.4
20260905191325 85 355 2.0 8.0 0.00 0.00 0.00 76 1012.5
20260905190857 86 344 3.0 8.0 0.00 0.00 0.00 76 1012.5
20260905190347 86 306 3.0 8.0 0.00 0.00 0.00 79 1012.5
20260905185858 86 336 4.0 8.0 0.00 0.08 0.00 75 1012.5
20260905185329 87 297 3.0 8.0 0.00 0.08 0.00 76 1012.5
20260905184835 86 5 4.0 8.0 0.00 0.08 0.00 75 1012.6
20260905184325 86 293 4.0 8.0 0.00 0.08 0.00 76 1012.6
20260905183847 86 319 4.0 8.0 0.00 0.08 0.00 78 1012.6
20260905183356 86 329 4.0 9.0 0.00 0.08 0.00 78 1012.6
20260905182841 86 330 5.0 9.0 0.00 0.08 0.00 76 1012.7
20260905182333 86 300 4.0 9.0 0.00 0.08 0.00 79 1012.7
20260905181837 86 263 4.0 9.0 0.00 0.08 0.00 75 1012.6
20260905181328 85 288 5.0 9.0 0.00 0.08 0.00 78 1012.7
20260905180831 85 244 5.0 9.0 0.00 0.08 0.00 77 1012.7
20260905180338 84 297 4.0 8.0 0.00 0.08 0.00 78 1012.7
20260905175836 83 332 3.0 6.0 0.00 0.08 0.00 80 1012.8
20260905175327 83 331 4.0 6.0 0.00 0.08 0.00 81 1013.0
20260905174836 83 326 5.0 6.0 0.00 0.08 0.00 80 1012.9
20260905174327 83 317 3.0 5.0 0.00 0.08 0.00 82 1013.0
20260905173833 82 273 2.0 6.0 0.00 0.08 0.00 82 1013.0
20260905173335 82 280 3.0 7.0 0.00 0.08 0.00 82 1013.1
20260905172839 82 263 4.0 7.0 0.00 0.08 0.00 81 1013.2
20260905172328 81 315 3.0 5.0 0.00 0.08 0.00 85 1013.5
20260905171835 80 243 2.0 4.0 0.00 0.08 0.00 87 1013.4
20260905171327 79 242 1.0 3.0 0.00 0.08 0.00 86 1013.6
20260905170833 80 242 0.0 3.0 0.00 0.08 0.00 85 1013.7
20260905170346 80 242 1.0 9.0 0.00 0.08 0.00 84 1013.8
20260905165836 80 240 4.0 9.0 0.00 0.08 0.00 83 1013.6
20260905165348 81 298 2.0 10.0 0.00 0.08 0.00 84 1013.5
20260905164841 81 248 2.0 10.0 0.00 0.08 0.00 84 1013.6
20260905164334 80 261 5.0 10.0 0.00 0.08 0.00 84 1013.7
20260905163842 79 289 4.0 8.0 0.00 0.08 0.00 85 1013.9
20260905163353 79 246 3.0 9.0 0.00 0.08 0.00 86 1013.9
20260905162833 78 242 3.0 7.0 0.00 0.08 0.00 86 1014.0
20260905162327 78 235 2.0 9.0 0.00 0.08 0.00 86 1014.1
20260905161835 77 182 3.0 9.0 0.00 0.08 0.00 87 1014.2
20260905161350 77 306 3.0 10.0 0.00 0.08 0.00 86 1014.2
20260905160826 77 282 5.0 10.0 0.00 0.08 0.00 85 1014.1
20260905160339 78 238 4.0 10.0 0.00 0.08 0.00 85 1014.1
20260905155839 78 229 4.0 10.0 0.00 0.08 0.00 86 1014.0
20260905155350 77 234 5.0 8.0 0.00 0.08 0.00 85 1014.0
20260905154852 77 260 1.0 9.0 0.00 0.08 0.00 88 1014.1
20260905154336 77 260 4.0 9.0 0.00 0.08 0.00 86 1014.1
20260905153844 77 302 5.0 9.0 0.00 0.08 0.00 87 1014.0
20260905153359 77 281 4.0 7.0 0.00 0.08 0.00 87 1013.9
20260905152854 77 277 3.0 7.0 0.00 0.08 0.00 88 1013.8
20260905152347 76 257 2.0 7.0 0.00 0.08 0.00 87 1013.8
20260905151900 76 290 2.0 9.0 0.00 0.08 0.00 87 1014.0
20260905151333 76 223 3.0 9.0 0.00 0.08 0.00 87 1014.0
20260905150841 76 244 2.0 10.0 0.00 0.08 0.00 87 1014.2
20260905150333 76 274 6.0 10.0 0.00 0.08 0.00 86 1014.3
20260905145827 76 262 2.0 6.0 0.00 0.08 0.00 87 1013.9
20260905145341 75 265 3.0 6.0 0.00 0.08 0.00 88 1013.9
20260905144831 74 192 1.0 3.0 0.00 0.08 0.00 89 1014.1
20260905144325 74 133 0.0 1.0 0.00 0.08 0.00 89 1014.1
20260905143835 73 130 0.0 0.0 0.00 0.08 0.00 89 1014.2
20260905143347 73 129 0.0 3.0 0.00 0.08 0.00 89 1014.1
20260905142834 73 129 1.0 3.0 0.00 0.08 0.00 89 1014.0
20260905142348 73 88 0.0 4.0 0.00 0.08 0.00 89 1014.0
20260905141844 73 87 1.0 4.0 0.00 0.08 0.00 88 1014.2
20260905141337 73 279 1.0 7.0 0.00 0.08 0.00 88 1014.1
20260905140844 73 229 2.0 7.0 0.00 0.08 0.00 88 1013.7
20260905140349 73 225 1.0 6.0 0.00 0.08 0.00 89 1013.5
20260905135839 73 254 2.0 6.0 0.00 0.08 0.00 89 1013.3
20260905135350 73 254 1.0 8.0 0.00 0.08 0.00 89 1013.4
20260905134827 73 212 4.0 9.0 0.00 0.08 0.00 88 1013.3
20260905134333 73 184 5.0 9.0 0.00 0.08 0.00 88 1013.1
20260905133837 72 236 4.0 10.0 0.00 0.08 0.00 89 1013.1
20260905133328 72 245 2.0 10.0 0.00 0.08 0.00 89 1013.2
20260905132835 72 236 5.0 10.0 0.00 0.08 0.00 89 1013.3
20260905132347 72 271 4.0 7.0 0.00 0.08 0.00 89 1013.2
20260905131900 71 232 4.0 13.0 0.00 0.08 0.00 89 1013.1
20260905131350 71 250 4.0 12.0 0.00 0.08 0.00 89 1013.1
20260905130828 71 204 3.0 9.0 0.00 0.08 0.00 89 1013.0
20260905130335 71 260 4.0 11.0 0.00 0.08 0.00 89 1013.3
20260905125904 71 240 3.0 11.0 0.00 0.08 0.00 89 1013.3
20260905125334 71 256 4.0 8.0 0.00 0.08 0.00 89 1013.3
20260905124839 70 101 3.0 7.0 0.00 0.08 0.00 89 1013.2
20260905124329 70 205 2.0 8.0 0.00 0.08 0.00 89 1013.2
20260905123837 70 237 3.0 10.0 0.00 0.08 0.00 89 1013.3
20260905123348 70 259 3.0 10.0 0.00 0.08 0.00 89 1013.4
20260905122843 70 200 0.0 9.0 0.00 0.08 0.00 89 1013.3
20260905122333 70 258 3.0 9.0 0.00 0.08 0.00 89 1013.4
20260905121839 70 200 3.0 9.0 0.00 0.08 0.00 89 1013.4
20260905121351 69 266 4.0 8.0 0.00 0.08 0.00 89 1013.4
20260905120837 69 233 2.0 6.0 0.00 0.08 0.00 89 1013.5
20260905120329 69 180 3.0 6.0 0.00 0.08 0.00 89 1013.3
20260905115827 69 234 2.0 4.0 0.00 0.08 0.00 89 1013.4
20260905115333 69 176 1.0 6.0 0.00 0.08 0.00 89 1013.5
20260905114839 69 209 2.0 6.0 0.00 0.08 0.00 89 1013.6
20260905114330 69 205 2.0 4.0 0.00 0.08 0.00 89 1013.5
20260905113837 69 205 1.0 4.0 0.00 0.08 0.00 89 1013.5
20260905113348 69 214 1.0 4.0 0.00 0.08 0.00 89 1013.5
20260905112826 70 196 2.0 7.0 0.00 0.08 0.00 89 1013.5
20260905112357 70 254 3.0 7.0 0.00 0.08 0.00 89 1013.6
20260905111837 70 192 2.0 4.0 0.00 0.08 0.00 89 1013.7
20260905111329 70 200 1.0 8.0 0.00 0.08 0.00 89 1013.5
20260905110836 70 153 4.0 8.0 0.00 0.08 0.00 89 1013.4
20260905110328 70 237 2.0 10.0 0.00 0.08 0.00 89 1013.6
20260905105856 70 158 3.0 10.0 0.00 0.08 0.00 89 1013.4
20260905105349 70 171 2.0 8.0 0.00 0.08 0.00 89 1013.4
20260905104836 70 148 3.0 8.0 0.00 0.08 0.00 89 1013.4
20260905104329 70 162 3.0 7.0 0.00 0.08 0.00 89 1013.3
20260905103833 70 233 2.0 11.0 0.00 0.08 0.00 89 1013.3
20260905103326 70 234 4.0 11.0 0.00 0.08 0.00 89 1013.5
20260905102825 70 138 4.0 10.0 0.00 0.08 0.00 89 1013.4
20260905102338 70 168 1.0 9.0 0.00 0.08 0.00 89 1013.3
20260905101843 70 155 4.0 9.0 0.00 0.08 0.00 89 1013.4
20260905101353 71 169 1.0 7.0 0.00 0.08 0.00 89 1013.5
20260905100831 71 167 3.0 7.0 0.00 0.08 0.00 89 1013.6
20260905100339 71 128 4.0 9.0 0.00 0.08 0.00 89 1013.7
20260905095837 71 183 2.0 10.0 0.00 0.08 0.00 89 1013.6
20260905095326 71 137 3.0 8.0 0.00 0.08 0.00 89 1013.7
20260905094835 71 136 5.0 9.0 0.00 0.08 0.00 88 1013.7
20260905094338 71 132 3.0 10.0 0.00 0.08 0.00 88 1013.7
20260905093844 71 180 6.0 12.0 0.00 0.08 0.00 88 1013.7
20260905093356 71 156 5.0 12.0 0.00 0.08 0.00 89 1013.6
20260905092837 72 132 3.0 11.0 0.00 0.08 0.00 88 1013.9
20260905092330 72 111 6.0 13.0 0.00 0.08 0.00 88 1013.6
20260905091836 72 146 6.0 14.0 0.00 0.08 0.00 89 1013.3
20260905091349 73 135 5.0 17.0 0.00 0.08 0.00 88 1013.3
20260905090835 73 128 8.0 17.0 0.00 0.08 0.00 88 1013.5
20260905090348 74 142 4.0 15.0 0.00 0.08 0.00 88 1013.4
20260905085838 74 163 7.0 16.0 0.00 0.08 0.00 88 1013.3
20260905085347 75 130 4.0 7.0 0.00 0.08 0.00 88 1013.1
20260905084835 75 235 0.0 0.0 0.00 0.08 0.00 88 1012.5
20260905084328 74 237 0.0 0.0 0.00 0.08 0.00 88 1012.4
20260905083837 74 237 0.0 0.0 0.00 0.08 0.00 88 1012.3
20260905083329 74 237 0.0 0.0 0.00 0.08 0.00 88 1012.4
20260905082838 74 237 0.0 0.0 0.00 0.08 0.00 88 1012.4
20260905082331 74 237 0.0 0.0 0.00 0.08 0.00 88 1012.5
20260905081840 74 237 0.0 0.0 0.00 0.08 0.00 88 1012.4
20260905081349 75 237 0.0 0.0 0.00 0.08 0.00 88 1012.2
20260905080836 75 237 0.0 0.0 0.00 0.08 0.00 88 1012.4
20260905080349 75 237 0.0 0.0 0.00 0.08 0.00 88 1012.3
20260905075840 75 237 0.0 0.0 0.00 0.08 0.00 88 1012.2
20260905075353 75 237 0.0 0.0 0.00 0.08 0.00 88 1012.3
20260905074833 75 237 0.0 0.0 0.00 0.08 0.00 88 1012.3
20260905074326 75 237 0.0 0.0 0.00 0.08 0.00 88 1012.3
20260905073850 75 237 0.0 0.0 0.00 0.08 0.00 88 1012.2
20260905073346 75 237 0.0 0.0 0.00 0.08 0.00 88 1012.1